| time (UTC) | temp F | wind direction | speed MPH | gust MPH | rain 1hr in | rain 24hr in | rain mn in | humidity % | barometer mb |
| 20260509132544 | 56 | 139 | 4.0 | 8.0 | 0.01 | 0.02 | 0.02 | 81 | 1010.8 |
| 20260509132041 | 56 | 147 | 5.0 | 8.0 | 0.00 | 0.01 | 0.01 | 80 | 1010.7 |
| 20260509131535 | 56 | 131 | 4.0 | 5.0 | 0.00 | 0.01 | 0.01 | 80 | 1010.7 |
| 20260509131026 | 56 | 133 | 3.0 | 5.0 | 0.00 | 0.01 | 0.01 | 78 | 1010.6 |
| 20260509130539 | 56 | 161 | 3.0 | 5.0 | 0.00 | 0.01 | 0.01 | 78 | 1010.7 |
| 20260509130035 | 55 | 135 | 1.0 | 3.0 | 0.00 | 0.01 | 0.01 | 79 | 1010.6 |
| 20260509125555 | 55 | 135 | 2.0 | 4.0 | 0.00 | 0.01 | 0.01 | 79 | 1010.6 |
| 20260509125030 | 55 | 135 | 2.0 | 4.0 | 0.00 | 0.01 | 0.01 | 81 | 1010.6 |
| 20260509124548 | 55 | 135 | 2.0 | 4.0 | 0.00 | 0.01 | 0.01 | 82 | 1010.7 |
| 20260509124041 | 54 | 135 | 2.0 | 3.0 | 0.00 | 0.01 | 0.01 | 81 | 1010.7 |
| 20260509123532 | 54 | 160 | 2.0 | 5.0 | 0.01 | 0.01 | 0.01 | 81 | 1010.8 |
| 20260509123025 | 54 | 178 | 3.0 | 7.0 | 0.01 | 0.01 | 0.01 | 81 | 1010.8 |
| 20260509122543 | 54 | 176 | 5.0 | 7.0 | 0.01 | 0.01 | 0.01 | 82 | 1010.9 |
| 20260509122037 | 54 | 161 | 4.0 | 5.0 | 0.01 | 0.01 | 0.01 | 82 | 1010.9 |
| 20260509121531 | 54 | 172 | 2.0 | 3.0 | 0.01 | 0.01 | 0.01 | 82 | 1010.8 |
| 20260509121026 | 53 | 172 | 1.0 | 4.0 | 0.01 | 0.01 | 0.01 | 82 | 1010.9 |
| 20260509120543 | 53 | 172 | 2.0 | 7.0 | 0.01 | 0.01 | 0.01 | 83 | 1010.8 |
| 20260509120104 | 53 | 156 | 4.0 | 7.0 | 0.01 | 0.01 | 0.01 | 83 | 1010.9 |
| 20260509115601 | 53 | 161 | 5.0 | 6.0 | 0.01 | 0.01 | 0.01 | 83 | 1011.0 |
| 20260509115042 | 53 | 355 | 1.0 | 3.0 | 0.01 | 0.01 | 0.01 | 83 | 1010.8 |
| 20260509114541 | 53 | 355 | 1.0 | 3.0 | 0.01 | 0.01 | 0.01 | 82 | 1010.6 |
| 20260509114041 | 53 | 63 | 1.0 | 2.0 | 0.01 | 0.01 | 0.01 | 82 | 1010.6 |
| 20260509113537 | 53 | 121 | 0.0 | 2.0 | 0.00 | 0.00 | 0.00 | 82 | 1010.7 |
| 20260509113032 | 53 | 121 | 1.0 | 2.0 | 0.00 | 0.00 | 0.00 | 80 | 1010.8 |
| 20260509112548 | 53 | 121 | 2.0 | 4.0 | 0.00 | 0.00 | 0.00 | 79 | 1010.8 |
| 20260509112043 | 53 | 121 | 2.0 | 4.0 | 0.00 | 0.00 | 0.00 | 79 | 1010.8 |
| 20260509111539 | 53 | 121 | 0.0 | 3.0 | 0.00 | 0.00 | 0.00 | 79 | 1010.8 |
| 20260509111101 | 53 | 36 | 0.0 | 2.0 | 0.00 | 0.00 | 0.00 | 80 | 1010.6 |
| 20260509110531 | 53 | 36 | 0.0 | 5.0 | 0.00 | 0.00 | 0.00 | 79 | 1010.6 |
| 20260509110027 | 53 | 58 | 3.0 | 5.0 | 0.00 | 0.00 | 0.00 | 79 | 1010.3 |
| 20260509105539 | 53 | 307 | 0.0 | 3.0 | 0.00 | 0.00 | 0.00 | 79 | 1010.4 |
| 20260509105033 | 53 | 307 | 0.0 | 2.0 | 0.00 | 0.00 | 0.00 | 78 | 1010.3 |
| 20260509104528 | 53 | 307 | 1.0 | 2.0 | 0.00 | 0.00 | 0.00 | 77 | 1010.4 |
| 20260509104028 | 53 | 307 | 0.0 | 2.0 | 0.00 | 0.00 | 0.00 | 77 | 1010.2 |
| 20260509103544 | 53 | 307 | 0.0 | 2.0 | 0.00 | 0.00 | 0.00 | 78 | 1010.1 |
| 20260509103038 | 53 | 307 | 0.0 | 2.0 | 0.00 | 0.00 | 0.00 | 76 | 1010.2 |
| 20260509102531 | 53 | 307 | 1.0 | 2.0 | 0.00 | 0.00 | 0.00 | 76 | 1010.1 |
| 20260509102028 | 53 | 307 | 1.0 | 4.0 | 0.00 | 0.00 | 0.00 | 75 | 1010.0 |
| 20260509101543 | 53 | 307 | 2.0 | 4.0 | 0.00 | 0.00 | 0.00 | 75 | 1010.0 |
| 20260509101043 | 53 | 345 | 2.0 | 3.0 | 0.00 | 0.00 | 0.00 | 75 | 1009.8 |
| 20260509100540 | 53 | 345 | 1.0 | 2.0 | 0.00 | 0.00 | 0.00 | 75 | 1009.7 |
| 20260509100035 | 53 | 345 | 0.0 | 0.0 | 0.00 | 0.00 | 0.00 | 75 | 1009.7 |
| 20260509095534 | 53 | 345 | 0.0 | 2.0 | 0.00 | 0.00 | 0.00 | 74 | 1009.5 |
| 20260509095052 | 53 | 345 | 1.0 | 2.0 | 0.00 | 0.00 | 0.00 | 74 | 1009.6 |
| 20260509094526 | 53 | 345 | 0.0 | 2.0 | 0.00 | 0.00 | 0.00 | 74 | 1009.7 |
| 20260509094106 | 53 | 345 | 0.0 | 2.0 | 0.00 | 0.00 | 0.00 | 74 | 1009.6 |
| 20260509093542 | 53 | 345 | 0.0 | 2.0 | 0.00 | 0.00 | 0.00 | 74 | 1009.5 |
| 20260509093041 | 53 | 345 | 1.0 | 4.0 | 0.00 | 0.00 | 0.00 | 73 | 1009.6 |
| 20260509092538 | 53 | 333 | 2.0 | 4.0 | 0.00 | 0.00 | 0.00 | 73 | 1009.7 |
| 20260509092034 | 53 | 338 | 0.0 | 4.0 | 0.00 | 0.00 | 0.00 | 73 | 1009.6 |
| 20260509091551 | 53 | 338 | 1.0 | 4.0 | 0.00 | 0.00 | 0.00 | 73 | 1009.6 |
| 20260509091026 | 53 | 323 | 3.0 | 4.0 | 0.00 | 0.00 | 0.00 | 73 | 1009.8 |
| 20260509090543 | 53 | 323 | 3.0 | 4.0 | 0.00 | 0.00 | 0.00 | 73 | 1009.7 |
| 20260509090044 | 53 | 318 | 2.0 | 4.0 | 0.00 | 0.00 | 0.00 | 73 | 1009.6 |
| 20260509085538 | 53 | 312 | 3.0 | 4.0 | 0.00 | 0.00 | 0.00 | 73 | 1009.7 |
| 20260509085032 | 53 | 310 | 0.0 | 0.0 | 0.00 | 0.00 | 0.00 | 74 | 1009.6 |
| 20260509084548 | 53 | 309 | 0.0 | 0.0 | 0.00 | 0.00 | 0.00 | 74 | 1009.7 |
| 20260509084045 | 53 | 310 | 0.0 | 0.0 | 0.00 | 0.00 | 0.00 | 73 | 1009.7 |
| 20260509083538 | 54 | 310 | 0.0 | 0.0 | 0.00 | 0.00 | 0.00 | 73 | 1009.7 |
| 20260509083057 | 54 | 310 | 0.0 | 0.0 | 0.00 | 0.00 | 0.00 | 73 | 1009.6 |
| 20260509082530 | 54 | 310 | 0.0 | 0.0 | 0.00 | 0.00 | 0.00 | 73 | 1009.8 |
| 20260509082051 | 54 | 310 | 0.0 | 2.0 | 0.00 | 0.00 | 0.00 | 73 | 1009.9 |
| 20260509081548 | 54 | 310 | 0.0 | 2.0 | 0.00 | 0.00 | 0.00 | 73 | 1009.9 |
| 20260509081047 | 54 | 310 | 2.0 | 3.0 | 0.00 | 0.00 | 0.00 | 72 | 1009.9 |
| 20260509080605 | 54 | 310 | 2.0 | 4.0 | 0.00 | 0.00 | 0.00 | 71 | 1009.9 |
| 20260509080037 | 54 | 310 | 2.0 | 4.0 | 0.00 | 0.00 | 0.00 | 72 | 1009.9 |
| 20260509075531 | 54 | 20 | 2.0 | 3.0 | 0.00 | 0.00 | 0.00 | 72 | 1009.9 |
| 20260509075025 | 54 | 57 | 1.0 | 3.0 | 0.00 | 0.00 | 0.00 | 72 | 1009.8 |
| 20260509074536 | 54 | 57 | 0.0 | 1.0 | 0.00 | 0.00 | 0.00 | 72 | 1009.7 |
| 20260509074039 | 54 | 57 | 0.0 | 1.0 | 0.00 | 0.00 | 0.00 | 72 | 1009.7 |
| 20260509073531 | 54 | 57 | 0.0 | 1.0 | 0.00 | 0.00 | 0.00 | 71 | 1009.7 |
| 20260509073027 | 54 | 57 | 0.0 | 2.0 | 0.00 | 0.00 | 0.00 | 71 | 1009.9 |
| 20260509072544 | 54 | 57 | 0.0 | 3.0 | 0.00 | 0.00 | 0.00 | 71 | 1009.9 |
| 20260509072043 | 54 | 57 | 1.0 | 4.0 | 0.00 | 0.00 | 0.00 | 71 | 1009.8 |
| 20260509071541 | 54 | 57 | 1.0 | 5.0 | 0.00 | 0.00 | 0.00 | 70 | 1010.0 |
| 20260509071041 | 54 | 62 | 3.0 | 5.0 | 0.00 | 0.00 | 0.00 | 71 | 1010.0 |
| 20260509070540 | 54 | 55 | 2.0 | 5.0 | 0.00 | 0.00 | 0.00 | 71 | 1010.0 |
| 20260509070039 | 54 | 53 | 3.0 | 5.0 | 0.00 | 0.00 | 0.00 | 70 | 1010.0 |
| 20260509065537 | 54 | 32 | 2.0 | 7.0 | 0.00 | 0.00 | 0.00 | 70 | 1010.1 |
| 20260509065028 | 54 | 59 | 3.0 | 7.0 | 0.00 | 0.00 | 0.00 | 70 | 1010.2 |
| 20260509064547 | 54 | 52 | 3.0 | 6.0 | 0.00 | 0.00 | 0.00 | 70 | 1010.2 |
| 20260509064105 | 54 | 54 | 3.0 | 6.0 | 0.00 | 0.00 | 0.00 | 70 | 1010.2 |
| 20260509063542 | 54 | 32 | 2.0 | 6.0 | 0.00 | 0.00 | 0.00 | 70 | 1010.3 |
| 20260509063102 | 54 | 37 | 3.0 | 6.0 | 0.00 | 0.00 | 0.00 | 70 | 1010.3 |
| 20260509062536 | 54 | 25 | 3.0 | 6.0 | 0.00 | 0.00 | 0.00 | 69 | 1010.3 |
| 20260509062031 | 55 | 5 | 3.0 | 6.0 | 0.00 | 0.00 | 0.00 | 68 | 1010.4 |
| 20260509061524 | 55 | 355 | 3.0 | 5.0 | 0.00 | 0.00 | 0.00 | 68 | 1010.3 |
| 20260509061042 | 55 | 9 | 2.0 | 5.0 | 0.00 | 0.00 | 0.00 | 69 | 1010.4 |
| 20260509060539 | 55 | 340 | 3.0 | 5.0 | 0.00 | 0.00 | 0.00 | 68 | 1010.6 |
| 20260509060034 | 55 | 334 | 3.0 | 4.0 | 0.00 | 0.00 | 0.00 | 68 | 1010.6 |
| 20260509055526 | 55 | 355 | 1.0 | 2.0 | 0.00 | 0.00 | 0.00 | 68 | 1010.5 |
| 20260509055025 | 55 | 355 | 1.0 | 2.0 | 0.00 | 0.00 | 0.00 | 68 | 1010.6 |
| 20260509054600 | 55 | 355 | 0.0 | 2.0 | 0.00 | 0.00 | 0.00 | 67 | 1010.5 |
| 20260509054041 | 55 | 355 | 0.0 | 2.0 | 0.00 | 0.00 | 0.00 | 68 | 1010.5 |
| 20260509053532 | 55 | 355 | 0.0 | 2.0 | 0.00 | 0.00 | 0.00 | 67 | 1010.4 |
| 20260509053027 | 55 | 355 | 1.0 | 2.0 | 0.00 | 0.00 | 0.00 | 67 | 1010.5 |
| 20260509052538 | 56 | 355 | 0.0 | 3.0 | 0.00 | 0.00 | 0.00 | 68 | 1010.6 |
| 20260509052034 | 55 | 355 | 0.0 | 3.0 | 0.00 | 0.00 | 0.00 | 67 | 1010.6 |
| 20260509051526 | 55 | 355 | 1.0 | 4.0 | 0.00 | 0.00 | 0.00 | 67 | 1010.5 |
| 20260509051044 | 55 | 348 | 1.0 | 4.0 | 0.00 | 0.00 | 0.00 | 66 | 1010.5 |
| 20260509050541 | 55 | 355 | 2.0 | 4.0 | 0.00 | 0.00 | 0.00 | 67 | 1010.6 |
| 20260509050038 | 55 | 355 | 2.0 | 4.0 | 0.00 | 0.00 | 0.00 | 68 | 1010.5 |
| 20260509045529 | 55 | 341 | 2.0 | 4.0 | 0.00 | 0.00 | 0.00 | 68 | 1010.6 |
| 20260509045044 | 55 | 331 | 2.0 | 4.0 | 0.00 | 0.00 | 0.00 | 68 | 1010.6 |
| 20260509044532 | 55 | 298 | 2.0 | 4.0 | 0.00 | 0.00 | 0.00 | 68 | 1010.6 |
| 20260509044026 | 56 | 351 | 1.0 | 3.0 | 0.00 | 0.00 | 0.00 | 68 | 1010.7 |
| 20260509043542 | 56 | 128 | 1.0 | 3.0 | 0.00 | 0.00 | 0.00 | 68 | 1010.7 |
| 20260509043037 | 56 | 355 | 1.0 | 3.0 | 0.00 | 0.00 | 0.00 | 68 | 1010.8 |
| 20260509042531 | 56 | 355 | 1.0 | 3.0 | 0.00 | 0.00 | 0.00 | 68 | 1010.8 |
| 20260509042026 | 56 | 355 | 0.0 | 3.0 | 0.00 | 0.00 | 0.00 | 67 | 1010.8 |
| 20260509041603 | 56 | 355 | 0.0 | 0.0 | 0.00 | 0.00 | 0.00 | 67 | 1011.0 |
| 20260509041037 | 56 | 355 | 0.0 | 0.0 | 0.00 | 0.00 | 0.00 | 67 | 1011.0 |
| 20260509040541 | 56 | 355 | 0.0 | 0.0 | 0.00 | 0.00 | 0.00 | 68 | 1011.0 |
| 20260509040035 | 56 | 355 | 0.0 | 3.0 | 0.00 | 0.00 | 0.00 | 67 | 1010.9 |
| 20260509035524 | 56 | 355 | 0.0 | 3.0 | 0.00 | 0.00 | 0.00 | 66 | 1011.0 |
| 20260509035045 | 56 | 355 | 2.0 | 4.0 | 0.00 | 0.00 | 0.00 | 66 | 1011.1 |
| 20260509034538 | 56 | 330 | 2.0 | 4.0 | 0.00 | 0.00 | 0.00 | 66 | 1011.0 |
| 20260509034038 | 56 | 69 | 1.0 | 2.0 | 0.00 | 0.00 | 0.00 | 66 | 1010.9 |
| 20260509033556 | 56 | 68 | 0.0 | 2.0 | 0.00 | 0.00 | 0.00 | 66 | 1011.0 |
| 20260509033054 | 56 | 68 | 1.0 | 3.0 | 0.00 | 0.00 | 0.00 | 66 | 1010.9 |
| 20260509032526 | 57 | 68 | 2.0 | 3.0 | 0.00 | 0.00 | 0.00 | 66 | 1011.0 |
| 20260509032043 | 57 | 68 | 2.0 | 3.0 | 0.00 | 0.00 | 0.00 | 65 | 1011.0 |
| 20260509031541 | 57 | 68 | 2.0 | 3.0 | 0.00 | 0.00 | 0.00 | 63 | 1011.1 |
| 20260509031042 | 57 | 68 | 0.0 | 1.0 | 0.00 | 0.00 | 0.00 | 64 | 1011.2 |
| 20260509030540 | 57 | 68 | 0.0 | 1.0 | 0.00 | 0.00 | 0.00 | 64 | 1011.4 |
| 20260509030034 | 57 | 68 | 0.0 | 2.0 | 0.00 | 0.00 | 0.00 | 63 | 1011.4 |
| 20260509025525 | 57 | 68 | 0.0 | 3.0 | 0.00 | 0.00 | 0.00 | 62 | 1011.6 |
| 20260509025044 | 57 | 124 | 2.0 | 3.0 | 0.00 | 0.00 | 0.00 | 62 | 1011.4 |
| 20260509024600 | 58 | 124 | 0.0 | 2.0 | 0.00 | 0.00 | 0.00 | 63 | 1011.6 |
| 20260509024058 | 58 | 124 | 0.0 | 2.0 | 0.00 | 0.00 | 0.00 | 62 | 1011.3 |
| 20260509023528 | 58 | 124 | 1.0 | 2.0 | 0.00 | 0.00 | 0.00 | 61 | 1011.3 |
| 20260509023102 | 58 | 124 | 1.0 | 2.0 | 0.00 | 0.00 | 0.00 | 60 | 1011.3 |
| 20260509022554 | 58 | 124 | 0.0 | 2.0 | 0.00 | 0.00 | 0.00 | 60 | 1011.4 |
| 20260509022026 | 58 | 124 | 0.0 | 3.0 | 0.00 | 0.00 | 0.00 | 59 | 1011.6 |
| 20260509021532 | 58 | 124 | 0.0 | 5.0 | 0.00 | 0.00 | 0.00 | 59 | 1011.4 |
| 20260509021024 | 58 | 123 | 3.0 | 7.0 | 0.00 | 0.00 | 0.00 | 59 | 1011.5 |
| 20260509020041 | 58 | 129 | 4.0 | 10.0 | 0.00 | 0.00 | 0.00 | 60 | 1011.5 |
| 20260509015535 | 58 | 145 | 5.0 | 10.0 | 0.00 | 0.00 | 0.00 | 60 | 1011.4 |
| 20260509015031 | 58 | 149 | 6.0 | 8.0 | 0.00 | 0.00 | 0.00 | 59 | 1011.2 |
| 20260509014544 | 58 | 132 | 3.0 | 8.0 | 0.00 | 0.00 | 0.00 | 60 | 1011.1 |
| 20260509014041 | 58 | 136 | 4.0 | 8.0 | 0.00 | 0.00 | 0.00 | 59 | 1011.2 |
| 20260509013540 | 58 | 134 | 3.0 | 5.0 | 0.00 | 0.00 | 0.00 | 59 | 1011.2 |
| 20260509013034 | 59 | 134 | 2.0 | 3.0 | 0.00 | 0.00 | 0.00 | 59 | 1011.1 |
| 20260509012527 | 59 | 125 | 0.0 | 10.0 | 0.00 | 0.00 | 0.00 | 59 | 1011.1 |
| 20260509012044 | 59 | 125 | 2.0 | 10.0 | 0.00 | 0.00 | 0.00 | 58 | 1011.1 |
| 20260509011602 | 59 | 146 | 4.0 | 7.0 | 0.00 | 0.00 | 0.00 | 60 | 1011.2 |
| 20260509011035 | 59 | 24 | 2.0 | 3.0 | 0.00 | 0.00 | 0.00 | 58 | 1011.0 |
| 20260509010525 | 59 | 24 | 2.0 | 3.0 | 0.00 | 0.00 | 0.00 | 56 | 1010.9 |
| 20260509010043 | 60 | 298 | 1.0 | 3.0 | 0.00 | 0.00 | 0.00 | 55 | 1011.1 |
| 20260509005600 | 60 | 298 | 0.0 | 1.0 | 0.00 | 0.00 | 0.00 | 55 | 1011.0 |
| 20260509005032 | 60 | 298 | 0.0 | 2.0 | 0.00 | 0.00 | 0.00 | 57 | 1010.9 |
| 20260509004525 | 60 | 298 | 0.0 | 2.0 | 0.00 | 0.00 | 0.00 | 55 | 1010.9 |
| 20260509004104 | 60 | 298 | 1.0 | 2.0 | 0.00 | 0.00 | 0.00 | 54 | 1011.0 |
| 20260509003540 | 60 | 298 | 1.0 | 2.0 | 0.00 | 0.00 | 0.00 | 53 | 1011.0 |
| 20260509003030 | 60 | 298 | 0.0 | 1.0 | 0.00 | 0.00 | 0.00 | 52 | 1011.0 |
| 20260509002603 | 61 | 298 | 0.0 | 1.0 | 0.00 | 0.00 | 0.00 | 54 | 1011.1 |
| 20260509002043 | 61 | 298 | 0.0 | 2.0 | 0.00 | 0.00 | 0.00 | 51 | 1011.0 |
| 20260509001538 | 61 | 298 | 1.0 | 2.0 | 0.00 | 0.00 | 0.00 | 52 | 1011.0 |
| 20260509001039 | 61 | 298 | 0.0 | 1.0 | 0.00 | 0.00 | 0.00 | 51 | 1011.0 |
| 20260509000531 | 62 | 298 | 0.0 | 3.0 | 0.00 | 0.00 | 0.00 | 51 | 1010.9 |
| 20260509000026 | 62 | 298 | 1.0 | 3.0 | 0.00 | 0.00 | 0.00 | 51 | 1011.0 |
| 20260508235536 | 62 | 295 | 0.0 | 3.0 | 0.00 | 0.00 | 0.00 | 50 | 1010.9 |
| 20260508235052 | 63 | 295 | 1.0 | 4.0 | 0.00 | 0.00 | 0.00 | 48 | 1010.9 |
| 20260508234524 | 63 | 290 | 2.0 | 4.0 | 0.00 | 0.00 | 0.00 | 46 | 1011.0 |
| 20260508234038 | 63 | 283 | 2.0 | 4.0 | 0.00 | 0.00 | 0.00 | 45 | 1010.9 |
| 20260508233556 | 64 | 280 | 2.0 | 5.0 | 0.00 | 0.00 | 0.00 | 46 | 1010.8 |
| 20260508233029 | 64 | 301 | 2.0 | 8.0 | 0.00 | 0.00 | 0.00 | 45 | 1010.7 |
| 20260508232603 | 64 | 258 | 3.0 | 9.0 | 0.00 | 0.00 | 0.00 | 44 | 1010.6 |
| 20260508232040 | 64 | 257 | 3.0 | 9.0 | 0.00 | 0.00 | 0.00 | 43 | 1010.6 |
| 20260508231534 | 64 | 279 | 5.0 | 9.0 | 0.00 | 0.00 | 0.00 | 44 | 1010.6 |
| 20260508231028 | 64 | 273 | 4.0 | 9.0 | 0.00 | 0.00 | 0.00 | 44 | 1010.5 |
| 20260508230558 | 64 | 292 | 5.0 | 9.0 | 0.00 | 0.00 | 0.00 | 43 | 1010.6 |
| 20260508230032 | 64 | 259 | 6.0 | 9.0 | 0.00 | 0.00 | 0.00 | 43 | 1010.7 |
| 20260508225524 | 64 | 271 | 4.0 | 9.0 | 0.00 | 0.00 | 0.00 | 43 | 1010.7 |
| 20260508225044 | 64 | 296 | 2.0 | 12.0 | 0.00 | 0.00 | 0.00 | 44 | 1010.8 |
| 20260508224537 | 64 | 277 | 5.0 | 12.0 | 0.00 | 0.00 | 0.00 | 43 | 1010.7 |
| 20260508224057 | 64 | 294 | 5.0 | 11.0 | 0.00 | 0.00 | 0.00 | 43 | 1010.8 |
| 20260508223553 | 64 | 271 | 3.0 | 18.0 | 0.00 | 0.00 | 0.00 | 42 | 1010.9 |
| 20260508223027 | 64 | 290 | 10.0 | 18.0 | 0.00 | 0.00 | 0.00 | 42 | 1011.0 |
| 20260508222542 | 64 | 281 | 9.0 | 16.0 | 0.00 | 0.00 | 0.00 | 42 | 1010.9 |
| 20260508222042 | 64 | 280 | 9.0 | 17.0 | 0.00 | 0.00 | 0.00 | 42 | 1010.9 |
| 20260508221533 | 64 | 273 | 8.0 | 18.0 | 0.00 | 0.00 | 0.00 | 42 | 1010.9 |
| 20260508221031 | 64 | 231 | 9.0 | 18.0 | 0.00 | 0.00 | 0.00 | 41 | 1010.8 |
| 20260508220524 | 64 | 256 | 8.0 | 17.0 | 0.00 | 0.00 | 0.00 | 41 | 1010.8 |
| 20260508220105 | 64 | 255 | 11.0 | 20.0 | 0.00 | 0.00 | 0.00 | 41 | 1010.8 |
| 20260508215557 | 64 | 236 | 8.0 | 20.0 | 0.00 | 0.00 | 0.00 | 40 | 1010.8 |
| 20260508215030 | 65 | 247 | 9.0 | 19.0 | 0.00 | 0.00 | 0.00 | 40 | 1010.8 |
| 20260508214528 | 65 | 281 | 11.0 | 20.0 | 0.00 | 0.00 | 0.00 | 40 | 1010.7 |
| 20260508214027 | 65 | 256 | 9.0 | 20.0 | 0.00 | 0.00 | 0.00 | 40 | 1010.7 |
| 20260508213559 | 65 | 213 | 12.0 | 18.0 | 0.00 | 0.00 | 0.00 | 39 | 1010.7 |
| 20260508213041 | 65 | 228 | 9.0 | 18.0 | 0.00 | 0.00 | 0.00 | 39 | 1010.6 |
| 20260508212531 | 65 | 248 | 9.0 | 18.0 | 0.00 | 0.00 | 0.00 | 40 | 1010.7 |
| 20260508212026 | 65 | 240 | 7.0 | 18.0 | 0.00 | 0.00 | 0.00 | 39 | 1010.7 |
| 20260508211541 | 65 | 240 | 8.0 | 18.0 | 0.00 | 0.00 | 0.00 | 39 | 1010.6 |
| 20260508211037 | 65 | 221 | 8.0 | 18.0 | 0.00 | 0.00 | 0.00 | 39 | 1010.6 |
| 20260508210531 | 65 | 245 | 8.0 | 15.0 | 0.00 | 0.00 | 0.00 | 39 | 1010.8 |
| 20260508210026 | 65 | 250 | 7.0 | 13.0 | 0.00 | 0.00 | 0.00 | 39 | 1010.8 |
| 20260508205544 | 65 | 256 | 5.0 | 13.0 | 0.00 | 0.00 | 0.00 | 40 | 1010.6 |
| 20260508205038 | 65 | 238 | 7.0 | 13.0 | 0.00 | 0.00 | 0.00 | 39 | 1010.6 |
| 20260508204535 | 65 | 237 | 6.0 | 16.0 | 0.00 | 0.00 | 0.00 | 38 | 1010.7 |
| 20260508204030 | 65 | 254 | 9.0 | 18.0 | 0.00 | 0.00 | 0.00 | 37 | 1010.7 |
| 20260508203547 | 65 | 224 | 9.0 | 23.0 | 0.00 | 0.00 | 0.00 | 37 | 1010.8 |
| 20260508203103 | 66 | 262 | 11.0 | 23.0 | 0.00 | 0.00 | 0.00 | 36 | 1010.8 |
| 20260508202538 | 66 | 260 | 10.0 | 18.0 | 0.00 | 0.00 | 0.00 | 36 | 1010.8 |
| 20260508202032 | 66 | 251 | 8.0 | 18.0 | 0.00 | 0.00 | 0.00 | 37 | 1010.8 |
| 20260508201525 | 66 | 229 | 6.0 | 17.0 | 0.00 | 0.00 | 0.00 | 37 | 1010.7 |
| 20260508201106 | 66 | 219 | 11.0 | 17.0 | 0.00 | 0.00 | 0.00 | 35 | 1010.7 |
| 20260508200542 | 66 | 271 | 7.0 | 15.0 | 0.00 | 0.00 | 0.00 | 37 | 1010.8 |
| 20260508200040 | 66 | 211 | 6.0 | 16.0 | 0.00 | 0.00 | 0.00 | 37 | 1010.8 |
| 20260508195540 | 66 | 243 | 7.0 | 13.0 | 0.00 | 0.00 | 0.00 | 38 | 1010.8 |
| 20260508195035 | 66 | 248 | 6.0 | 13.0 | 0.00 | 0.00 | 0.00 | 38 | 1010.9 |
| 20260508194531 | 66 | 243 | 6.0 | 18.0 | 0.00 | 0.00 | 0.00 | 36 | 1011.0 |
| 20260508194026 | 66 | 244 | 11.0 | 18.0 | 0.00 | 0.00 | 0.00 | 34 | 1011.0 |
| 20260508193543 | 66 | 266 | 9.0 | 21.0 | 0.00 | 0.00 | 0.00 | 35 | 1011.0 |
| 20260508193101 | 66 | 296 | 10.0 | 25.0 | 0.00 | 0.00 | 0.00 | 34 | 1010.8 |
| 20260508192534 | 66 | 223 | 15.0 | 25.0 | 0.00 | 0.00 | 0.00 | 33 | 1011.0 |
| 20260508192028 | 66 | 232 | 9.0 | 17.0 | 0.00 | 0.00 | 0.00 | 36 | 1011.0 |
| 20260508191542 | 67 | 257 | 6.0 | 14.0 | 0.00 | 0.00 | 0.00 | 36 | 1011.0 |
| 20260508191042 | 67 | 217 | 6.0 | 14.0 | 0.00 | 0.00 | 0.00 | 35 | 1010.9 |
| 20260508190534 | 68 | 245 | 6.0 | 13.0 | 0.00 | 0.00 | 0.00 | 35 | 1010.8 |
| 20260508190030 | 68 | 232 | 5.0 | 14.0 | 0.00 | 0.00 | 0.00 | 35 | 1010.9 |
| 20260508185542 | 68 | 244 | 7.0 | 18.0 | 0.00 | 0.00 | 0.00 | 35 | 1011.0 |
| 20260508185041 | 69 | 274 | 6.0 | 18.0 | 0.00 | 0.00 | 0.00 | 34 | 1010.9 |
| 20260508184532 | 68 | 225 | 9.0 | 17.0 | 0.00 | 0.00 | 0.00 | 34 | 1011.1 |
| 20260508184028 | 69 | 265 | 4.0 | 17.0 | 0.00 | 0.00 | 0.00 | 35 | 1011.0 |
| 20260508183603 | 69 | 217 | 8.0 | 17.0 | 0.00 | 0.00 | 0.00 | 33 | 1011.1 |
| 20260508183038 | 69 | 245 | 5.0 | 16.0 | 0.00 | 0.00 | 0.00 | 34 | 1011.2 |
| 20260508182526 | 69 | 159 | 6.0 | 19.0 | 0.00 | 0.00 | 0.00 | 35 | 1011.5 |
| 20260508182105 | 70 | 232 | 8.0 | 22.0 | 0.00 | 0.00 | 0.00 | 33 | 1011.4 |
| 20260508181539 | 70 | 249 | 10.0 | 22.0 | 0.00 | 0.00 | 0.00 | 35 | 1011.5 |
| 20260508181032 | 70 | 246 | 6.0 | 17.0 | 0.00 | 0.00 | 0.00 | 35 | 1011.4 |
| 20260508180525 | 69 | 249 | 6.0 | 16.0 | 0.00 | 0.00 | 0.00 | 38 | 1011.5 |
| 20260508180045 | 68 | 238 | 8.0 | 16.0 | 0.00 | 0.00 | 0.00 | 39 | 1011.6 |
| 20260508175536 | 67 | 229 | 5.0 | 19.0 | 0.00 | 0.00 | 0.00 | 39 | 1011.6 |
| 20260508175034 | 67 | 231 | 4.0 | 19.0 | 0.00 | 0.00 | 0.00 | 39 | 1011.7 |
| 20260508174552 | 67 | 182 | 7.0 | 16.0 | 0.00 | 0.00 | 0.00 | 37 | 1011.7 |
| 20260508174050 | 67 | 297 | 5.0 | 13.0 | 0.00 | 0.00 | 0.00 | 39 | 1011.8 |
| 20260508173541 | 66 | 237 | 5.0 | 13.0 | 0.00 | 0.00 | 0.00 | 40 | 1011.9 |
| 20260508173034 | 66 | 234 | 6.0 | 17.0 | 0.00 | 0.00 | 0.00 | 37 | 1011.9 |
| 20260508172527 | 66 | 191 | 7.0 | 19.0 | 0.00 | 0.00 | 0.00 | 39 | 1012.0 |
| 20260508172043 | 67 | 248 | 7.0 | 14.0 | 0.00 | 0.00 | 0.00 | 38 | 1011.9 |
| 20260508171536 | 67 | 225 | 5.0 | 14.0 | 0.00 | 0.00 | 0.00 | 38 | 1012.3 |
| 20260508171028 | 68 | 208 | 7.0 | 19.0 | 0.00 | 0.00 | 0.00 | 38 | 1012.3 |
| 20260508170542 | 67 | 243 | 9.0 | 19.0 | 0.00 | 0.00 | 0.00 | 39 | 1012.4 |
| 20260508170037 | 67 | 254 | 6.0 | 14.0 | 0.00 | 0.00 | 0.00 | 40 | 1012.4 |
| 20260508165554 | 66 | 190 | 5.0 | 10.0 | 0.00 | 0.00 | 0.00 | 39 | 1012.5 |
| 20260508165027 | 66 | 232 | 5.0 | 16.0 | 0.00 | 0.00 | 0.00 | 40 | 1012.5 |
| 20260508164536 | 65 | 228 | 8.0 | 16.0 | 0.00 | 0.00 | 0.00 | 39 | 1012.6 |
| 20260508164030 | 65 | 207 | 4.0 | 17.0 | 0.00 | 0.00 | 0.00 | 41 | 1012.7 |
| 20260508163524 | 65 | 182 | 7.0 | 17.0 | 0.00 | 0.00 | 0.00 | 42 | 1012.8 |
| 20260508163045 | 63 | 223 | 6.0 | 15.0 | 0.00 | 0.00 | 0.00 | 43 | 1012.9 |
| 20260508162541 | 62 | 254 | 8.0 | 15.0 | 0.00 | 0.00 | 0.00 | 42 | 1012.9 |
| 20260508162044 | 62 | 218 | 8.0 | 15.0 | 0.00 | 0.00 | 0.00 | 41 | 1013.0 |
| 20260508161538 | 62 | 265 | 7.0 | 20.0 | 0.00 | 0.00 | 0.00 | 43 | 1012.9 |
| 20260508161033 | 61 | 250 | 11.0 | 20.0 | 0.00 | 0.00 | 0.00 | 42 | 1013.1 |
| 20260508160528 | 61 | 278 | 11.0 | 20.0 | 0.00 | 0.00 | 0.00 | 41 | 1013.1 |
| 20260508160047 | 62 | 209 | 5.0 | 19.0 | 0.00 | 0.00 | 0.00 | 40 | 1013.1 |
| 20260508155539 | 62 | 252 | 11.0 | 18.0 | 0.00 | 0.00 | 0.00 | 42 | 1013.3 |
| 20260508155044 | 62 | 244 | 11.0 | 18.0 | 0.00 | 0.00 | 0.00 | 41 | 1013.2 |
| 20260508154541 | 62 | 262 | 4.0 | 15.0 | 0.00 | 0.00 | 0.00 | 41 | 1013.3 |
| 20260508154044 | 62 | 245 | 7.0 | 17.0 | 0.00 | 0.00 | 0.00 | 42 | 1013.4 |
| 20260508153541 | 62 | 236 | 9.0 | 17.0 | 0.00 | 0.00 | 0.00 | 41 | 1013.3 |
| 20260508153041 | 62 | 223 | 7.0 | 16.0 | 0.00 | 0.00 | 0.00 | 40 | 1013.4 |
| 20260508152535 | 62 | 242 | 6.0 | 11.0 | 0.00 | 0.00 | 0.00 | 42 | 1013.3 |
| 20260508152026 | 62 | 279 | 5.0 | 14.0 | 0.00 | 0.00 | 0.00 | 43 | 1013.3 |
| 20260508151541 | 62 | 210 | 6.0 | 19.0 | 0.00 | 0.00 | 0.00 | 42 | 1013.4 |
| 20260508151103 | 63 | 227 | 7.0 | 20.0 | 0.00 | 0.00 | 0.00 | 40 | 1013.4 |
| 20260508150539 | 63 | 215 | 5.0 | 20.0 | 0.00 | 0.00 | 0.00 | 41 | 1013.5 |
| 20260508150034 | 62 | 255 | 6.0 | 21.0 | 0.00 | 0.00 | 0.00 | 41 | 1013.4 |
| 20260508145525 | 62 | 235 | 6.0 | 21.0 | 0.00 | 0.00 | 0.00 | 43 | 1013.4 |
| 20260508145045 | 62 | 211 | 10.0 | 18.0 | 0.00 | 0.00 | 0.00 | 42 | 1013.4 |
| 20260508144537 | 62 | 231 | 5.0 | 18.0 | 0.00 | 0.00 | 0.00 | 45 | 1013.4 |
| 20260508144033 | 62 | 215 | 5.0 | 17.0 | 0.00 | 0.00 | 0.00 | 44 | 1013.5 |
| 20260508143525 | 61 | 196 | 6.0 | 18.0 | 0.00 | 0.00 | 0.00 | 43 | 1013.5 |
| 20260508143044 | 61 | 229 | 6.0 | 18.0 | 0.00 | 0.00 | 0.00 | 42 | 1013.5 |
| 20260508142538 | 61 | 236 | 7.0 | 17.0 | 0.00 | 0.00 | 0.00 | 42 | 1013.4 |
| 20260508142041 | 60 | 236 | 7.0 | 18.0 | 0.00 | 0.00 | 0.00 | 44 | 1013.5 |
| 20260508141532 | 60 | 252 | 7.0 | 18.0 | 0.00 | 0.00 | 0.00 | 45 | 1013.5 |
| 20260508141052 | 59 | 238 | 8.0 | 15.0 | 0.00 | 0.00 | 0.00 | 45 | 1013.6 |
| 20260508140524 | 59 | 230 | 5.0 | 14.0 | 0.00 | 0.00 | 0.00 | 50 | 1013.7 |
| 20260508140039 | 58 | 223 | 4.0 | 17.0 | 0.00 | 0.00 | 0.00 | 54 | 1013.7 |
| 20260508135532 | 57 | 194 | 8.0 | 17.0 | 0.00 | 0.00 | 0.00 | 51 | 1013.7 |
| 20260508135027 | 57 | 209 | 5.0 | 13.0 | 0.00 | 0.00 | 0.00 | 53 | 1013.7 |
| 20260508134543 | 57 | 190 | 9.0 | 14.0 | 0.00 | 0.00 | 0.00 | 53 | 1013.9 |
| 20260508134041 | 56 | 206 | 4.0 | 10.0 | 0.00 | 0.00 | 0.00 | 54 | 1013.8 |
| 20260508133540 | 56 | 228 | 4.0 | 13.0 | 0.00 | 0.00 | 0.00 | 57 | 1013.8 |
| 20260508133040 | 55 | 198 | 7.0 | 13.0 | 0.00 | 0.00 | 0.00 | 53 | 1013.8 |